Мурованые Куриловцы

Украина / Винницкая область     48°43′15″N   27°31′32″E
В апреле 2022 года жителям России запретили посещать сайт meteo.paraplan.net по решению Генеральной прокуратуры. Аудитория сайта уменьшилась в 10 раз. Владельцы сайта не видят смысла в поддержке погодного сервера в таких условиях. Сайт будет закрыт в октябре.
темп.,
°C
ветер,
м/с
пор.,
м/с
влажн.,
%
обл.,
%
осадки,
мм/ч
давл.,
гПа
погр.,
м
30 сентября, пт
пт3000:00+14юв22905 0.0 100812
03:00+13з11855 0.0 100910
06:00+12сз11845 0.0 101010
09:00+14ссз1276100 0.0 101193
12:00+18ююз1163100 0.0 1013362
15:00+20ююв3356100 0.0 1013641
18:00+18юв226640 0.0 101337
21:00+16юв2271100 0.0 101417
1 октября, сб
сб100:00+16ю236969 0.1 101536
03:00+14зюз227633 0.1 101511
06:00+13зюз228096 0.0 101610
09:00+15зюз0177100 0.0 101781
12:00+19зюз2362100 0.0 1017487
15:00+20з1259100 0.0 1015597
18:00+18ссв3471100 0.2 101375
21:00+15всв3684100 0.3 1012116
2 октября, вс
вс200:00+14св3587100 0.0 1010112
03:00+13ссз3395100 0.0 101046
06:00+13ююз1297100 1.7 100945
09:00+14зсз51091100 2.4 1008571
12:00+11сз71388100 1.3 1011694
15:00+15сз91364100 1.4 10101466
18:00+13сз7127111 0.1 10111029
21:00+10зсз6148479 0.2 1012713
3 октября, пн
пн300:00+11сз61376100 0.0 1012896
03:00+11зсз71279100 0.1 1012733
06:00+10зсз71383100 0.1 1012731
09:00+10зсз7127962 0.1 1013907
12:00+12зсз7117122 0.0 10141041
15:00+13сз8116458 0.4 10141359
18:00+11зсз61171100 0.1 10151361
21:00+10зсз51075100 0.1 1016882
4 октября, вт
вт400:00+10з51083100 0.1 1016653
03:00+10з51182100 0.1 1016573
06:00+9зюз51186100 0.6 1015621
09:00+10зюз61183100 1.1 1015755
12:00+11з597893 0.3 1016822
15:00+14зсз7961100 1.4 10151539
18:00+11зсз5974100 0.6 1016442
21:00+10сз368584 0.7 1018166